View from above orbital plane
|
View from above satellite
|
Ground track
|
The orbit data is extracted from the following two-line orbital elements,
1 24725U 97006A 21025.88886401 .00000013 00000-0 13105-4 0 9993
2 24725 82.6070 87.2318 0008240 251.0026 109.0172 12.60672319101834
Epoch (UTC): | 25 January 2021 21:19:57 |
Eccentricity: | 0.0008240 |
inclination: | 82.6070° |
perigee height: | 1414 km |
apogee height: | 1426 km |
right ascension of ascending node: | 87.2318° |
argument of perigee: | 251.0026° |
revolutions per day: | 12.60672319 |
mean anomaly at epoch: | 109.0172° |
orbit number at epoch: | 10183 |
The dashed part of the orbit path shows where the satellite is in the earth's shadow,
|
|